カタログに戻る

STARLINK-11633

運用中通信VLEO
NORAD 63317·PAYLOAD·🇺🇸 United States

打ち上げ Mar 18, 2025 から Cape Canaveral Space Force Station

Loading…

次のパス (今後24時間)

TLE

最新Source: CelesTrak SupGP

元期: Sep 14, 2026, 20:42 UTC

1 63317C 25057L   26257.86298611  .00067742  00000+0  52638-3 0  2571
2 63317  43.0007 203.8464 0001717 248.8457 131.7167 15.70794105    13

AllMySatでSTARLINK-11633をリアルタイム追跡

Download on the App Store